Regional Weather Roundup
Issued by NWS

Home | Current Version | Previous Version | Text Only | Print | Product List | Glossary Off
Versions: 1 2 3 4 5 6 7 8 9 10 11 12 13 14 15 16 17 18 19 20 21 22 23 24 25 26 27 28 29 30 31 32 33 34 35 36 37 38 39 40 41 42 43 44 45 46 47 48 49 50

000
ASUS43 KLOT 041508
RWRIL

ILLINOIS REGIONAL WEATHER ROUNDUP
NATIONAL WEATHER SERVICE CHICAGO/ROMEOVILLE IL
1000 AM CDT WED MAY 04 2016

NOTE: "FAIR" INDICATES FEW OR NO CLOUDS BELOW 12,000 FEET WITH NO
SIGNIFICANT WEATHER AND/OR OBSTRUCTIONS TO VISIBILITY.

* THESE STATIONS ARE NOT UNDER NWS QUALITY CONTROL. THEY ALSO MAY NOT
  REPORT WEATHER SUCH AS PRECIPITATION OR FOG.

ILZ001-002-007-009-015-016-024-041600-
NORTHWEST ILLINOIS

CITY           SKY/WX    TMP DP  RH WIND       PRES   REMARKS
MOLINE         MOSUNNY   56  42  59 N16       29.84R
STERLING*      PTSUNNY   52  43  71 N13       29.83R
SAVANNA*       MOSUNNY   53  40  61 N18G24    29.84S
$$

ILZ003-004-008-010-011-017-018-041600-
NORTH CENTRAL ILLINOIS

CITY           SKY/WX    TMP DP  RH WIND       PRES   REMARKS
ROCKFORD       PTSUNNY   51  38  60 N20G32    29.83R
FREEPORT*      PTSUNNY   49  39  68 N15G23    29.83S
ROCHELLE*      MOSUNNY   50  41  69 N17G25    29.80S
DE KALB*       PTSUNNY   49  41  74 N17G25    29.78S
$$

ILZ005-006-012>014-019>023-041600-
NORTHEAST ILLINOIS

CITY           SKY/WX    TMP DP  RH WIND       PRES   REMARKS
CHICAGO-OHARE  PTSUNNY   50  38  63 N18G24    29.74R
CHICAGO-MIDWAY CLOUDY    49  36  61 N18       29.75R
AURORA         MOSUNNY   49  41  74 NW23G29   29.77R
LANSING*       CLOUDY    47  38  71 N20G28    29.75R
JOLIET*        CLOUDY    54  41  62 N10G18    29.75R
WAUKEGAN       CLOUDY    47  37  68 N13       29.75R
DUPAGE AIRPORT MOSUNNY   52  39  61 N18G26    29.74R
KANKAKEE*      CLOUDY    52  42  69 N10       29.75S
WHEELING       CLOUDY    47  38  71 N16G25    29.76R
MORRIS*        PTSUNNY   52  42  70 NW14G20   29.75R
ROMEOVILLE*    CLOUDY    51  39  61 N17G24    29.74S
NORTHERLY ISL    N/A     45  36  70 N20         N/A
NORTHERLY ISL    N/A     45  36  70 N20         N/A
$$

LMZ740>746-041600-
SOUTHERN LAKE MICHIGAN

STATION/POSITION SKY/WX   TEMP    WIND        PRES    VSBY  WAVE
                          AIR SEA DIR/SP/G                  HT/PER
                          (F)     (DEG/KT/KT) (MB)    (MI)  (FT/S)
SOUTHERN BUOY              41 40  350/ 23/ 27 1005.8R         6/ 6
WILMETTE HARBOR            44 44   30/ 16/ 21   N/A           6/ 5
HARRISON CRIB              45     360/ 24/ 29   N/A
BURNHAM HARBOR             46     330/ 13/ 22   N/A
CALUMET HARBOR             45     340/ 17/ 24 1006.8R
BURNS HARBOR               44     360/ 21     1007.1R
MICHIGAN CITY              43     330/ 27/ 33   N/A
ST. JOSEPH                 43 47                N/A           9/ 6
$$

ILZ025>027-034>036-040-047-049-050-058-095>099-041600-
WEST-CENTRAL ILLINOIS

CITY           SKY/WX    TMP DP  RH WIND       PRES   REMARKS
QUINCY         SUNNY     59  46  62 N14       29.84R
GALESBURG*     PTSUNNY   52  45  76 N17G24    29.83S
MACOMB*        PTSUNNY   56  47  73 N21       29.85R
JACKSONVILLE*  SUNNY     59  46  60 N20       29.80R
PITTSFIELD*    SUNNY     59  48  67 N16       29.82R
$$

ILZ028>032-037-038-041>044-048-051>054-059>061-041600-
CENTRAL ILLINOIS

CITY           SKY/WX    TMP DP  RH WIND       PRES   REMARKS
PONTIAC        PTSUNNY   56  47  73 N18       29.77R
BLOOMINGTON    PTSUNNY   54  48  80 N16       29.78R
DECATUR        MOSUNNY   59  48  67 N15       29.76R
PEORIA         MOSUNNY   54  44  69 N12G20    29.80R
LACON*         PTSUNNY   54  42  63 N14G21    29.79R
LINCOLN*       PTSUNNY   57  50  79 N14G24    29.78R
SPRINGFIELD    MOSUNNY   58  49  72 N15G22    29.79R
TAYLORVILLE    PTSUNNY   57  49  76 NW17      29.77R
$$

ILZ033-039-045-046-055>057-062-063-041600-
EAST-CENTRAL ILLINOIS

CITY           SKY/WX    TMP DP  RH WIND       PRES   REMARKS
CHAMPAIGN      PTSUNNY   54  46  74 N20       29.74R
RANTOUL*       CLOUDY    55  46  72 N18G25    29.74R
MATTOON        MOSUNNY   57  45  64 N22       29.72R
PARIS*         PTSUNNY   56  46  71 N9        29.73R
$$

ILZ079-100>102-041600-
SOUTHWEST ILLINOIS

CITY           SKY/WX    TMP DP  RH WIND       PRES   REMARKS
ALTON          SUNNY     61  46  59 N16       29.77R
BELLEVILLE     SUNNY     64  50  60 N13G21    29.74R
CAHOKIA*       SUNNY     64  48  56 N15G24    29.76R
SPARTA*        SUNNY     62  50  64 NW13G20   29.75S
$$

ILZ064>066-069>071-074>076-080>082-084>086-088>090-092>094-041600-
SOUTH-CENTRAL ILLINOIS

CITY           SKY/WX    TMP DP  RH WIND       PRES   REMARKS
CARBONDALE     PTSUNNY   60  51  72 W8        29.73F
CAIRO*         LGT RAIN  57  48  70 W12G18    29.77R
EFFINGHAM*     MOSUNNY   58  50  73 N12G22    29.74R
MARION         SUNNY     57  52  82 SW12      29.74S
MT. VERNON     MOSUNNY   61  48  63 NW6       29.73R
CENTRALIA*     MOSUNNY   62  52  69 NW17G25   29.72R
SALEM*         MOSUNNY   62  51  66 N17       29.72R
METROPOLIS*    LGT RAIN  57  52  81 W6        29.77R
$$

ILZ067-068-072-073-078-083-087-091-041600-
SOUTHEAST ILLINOIS

CITY           SKY/WX    TMP DP  RH WIND       PRES   REMARKS
LAWRENCEVILLE  PTSUNNY   58  53  84 W6        29.71S
FLORA*         MOSUNNY   62  51  67 N15       29.71S
FAIRFIELD*     SUNNY     59  51  74 W9        29.71S
HARRISBURG*    PTSUNNY   55  52  88 SW8       29.73F
ROBINSON*      PTSUNNY   55  51  85 NW9       29.72S
CARMI*         MOSUNNY   58  53  82 W8        29.71F
$$

ABBREVIATIONS USED IN REMARKS
   TC - TEMPERATURE IN CELSIUS
  WCI - WIND CHILL INDEX
   HX - HEAT INDEX
  VSB - VISIBILITY
$$




USA.gov is the U.S. government's official web portal to all federal, state and local government web resources and services.